Regional Weather Roundup
Issued by NWS

Home | Current Version | Previous Version | Text Only | Print | Product List | Glossary Off
Versions: 1 2 3 4 5 6 7 8 9 10 11 12 13 14 15 16 17 18 19 20 21 22 23 24 25 26 27 28 29 30 31 32 33 34 35 36 37 38 39 40 41 42 43 44 45 46 47 48 49 50

000
ASUS45 KBOU 302207
RWRCO

WEATHER ROUNDUP FOR COLORADO
NATIONAL WEATHER SERVICE DENVER/BOULDER CO
400 PM MDT TUE SEP 30 2014

NOTE: "FAIR" INDICATES FEW OR NO CLOUDS BELOW 12000 FEET WITH NO
SIGNIFICANT WEATHER AND/OR OBSTRUCTIONS TO VISIBILITY.

COZ001>005-013-030-031-302300-
...NORTHWEST COLORADO...

CITY           SKY/WX    TMP DP  RH WIND       PRES   REMARKS
CRAIG          LGT RAIN  48  42  80 W13       29.97R
HAYDEN         CLOUDY    45  39  81 W14G21    29.97R
MEEKER         CLOUDY    53  42  66 NE3       29.96F
MOUNT WERNER   NOT AVBL
STEAMBOAT SPGS CLOUDY    47  39  75 W14G20    29.96R
WALDEN         PTSUNNY   46  32  57 W16G26    29.94F
$$

COZ006>008-011-302300-
...WEST CENTRAL VALLEYS...

CITY           SKY/WX    TMP DP  RH WIND       PRES   REMARKS
GRAND JUNCTION MOSUNNY   63  43  48 W5        29.92F
MONTROSE       PTSUNNY   61  43  51 N7        29.97F
EAGLE          CLOUDY    54  43  66 SW15      29.98F
RIFLE          CLOUDY    60  41  49 W15       29.93F
DELTA          PTSUNNY   63  42  45 CALM      29.95F HAZE
NUCLA          PTSUNNY   63  39  42 W7        30.00F
$$

COZ017>023-064>068-302300-
...SOUTHWEST COLORADO...

CITY           SKY/WX    TMP DP  RH WIND       PRES   REMARKS
DURANGO        CLOUDY    60  39  45 SW13      30.01F
CORTEZ         SUNNY     65  37  35 W13       29.99F
PAGOSA SPRINGS CLOUDY    55  37  51 SW8       30.05F
TELLURIDE      PTSUNNY  N/A N/A N/A W5        30.10S
WOLF CREEK PAS FOG       32  32 100 SW17G29   30.19F VSB<1/4 WCI  21
$$

COZ009-010-012-014-032>034-037-058>063-302300-
...CENTRAL COLORADO...

CITY           SKY/WX    TMP DP  RH WIND       PRES   REMARKS
ASPEN          PTSUNNY   48  34  58 CALM      30.02S
BUENA VISTA    CLOUDY    52  26  37 W17G24    30.01R
COPPER MTN     CLOUDY    34  27  75 S8        30.14S WCI  27
BERTHOUD PASS  CLOUDY    25  23  93 W20G32    30.13R WCI  11
COTTONWOOD PAS CLOUDY    45  28  53 W10G20    30.07S
GUNNISON       CLOUDY    50  34  53 NE3       30.05F
KREMMLING      CLOUDY    54  34  47 SW16G22   29.96S
LEADVILLE      PTSUNNY   41  27  57 NW9G17    30.06S
MONARCH PASS   CLOUDY    30  30 100 MISG      30.23R
SALIDA         CLOUDY    56  30  37 W15G22    30.07R
SUNLIGHT       SNOW      36  36 100 SW3       30.12S VSB 1/4
WILKERSON PASS NOT AVBL
$$

COZ069>075-302300-
...SAN LUIS VALLEY/SANGRE DE CRISTO MOUNTAINS...

CITY           SKY/WX    TMP DP  RH WIND       PRES   REMARKS
ALAMOSA        CLOUDY    59  31  34 NE5       29.98F
LA VETA PASS   SUNNY     46  28  49 SW7       30.09S
SAGUACHE       CLOUDY    54  32  43 N15G22    30.00S
$$

COZ035-036-038>040-302300-
...NORTHERN COLORADO FRONT RANGE...

CITY           SKY/WX    TMP DP  RH WIND       PRES   REMARKS
DENVER INTL AP PTSUNNY   65  30  27 NW12      29.82S
DMNS CITY PARK   N/A     65  29  25 W13G18    29.82S
AURORA         PTSUNNY   63  32  31 NW3       29.84S
FRONT RANGE AP NOT AVBL
ERIE MUNI ARPT CLOUDY    65  33  29 W9        29.81F
BOULDER MUN AP CLOUDY    64  32  29 SW15G21   29.80F
CENTENNIAL     PTSUNNY   65  32  29 N8        29.84S
BROOMFIELD     PTSUNNY   63  32  31 W15       29.85
FORT COLLINS   CLOUDY    64  36  34 W9        29.81S
LONGMONT       CLOUDY    67  34  29 W8        29.81F
$$

COZ041-046-047-076>085-087-088-302300-
...PIKES PEAK/PALMER DIVIDE AND SOUTHERN FOOTHILLS...

CITY           SKY/WX    TMP DP  RH WIND       PRES   REMARKS
COLO. SPRINGS  PTSUNNY   67  28  23 S6        29.85S
A. F. ACADEMY  MOSUNNY   65  27  23 W21       29.86F
ELLICOTT       NOT AVBL
FALCON         CLOUDY    64  28  26 SW3       29.90S
FORT CARSON    CLOUDY    67  31  25 E6        29.82F
LIMON          CLOUDY    66  32  28 NW9       29.82F
MONUMENT HILL  CLOUDY    59  30  33 N9        29.89S
TRINIDAD       SUNNY     72  29  20 E8        29.84F
$$

COZ042>045-048>051-090-091-302300-
...NORTHEAST COLORADO...

CITY           SKY/WX    TMP DP  RH WIND       PRES   REMARKS
GREELEY ARPT   PTSUNNY   70  36  28 W13       29.79S
AKRON          MOSUNNY   69  36  29 W9        29.80S
BURLINGTON     SUNNY     72  36  26 W5        29.78F
WRAY           PTSUNNY   75  35  23 SE6       29.74F
STERLING       MOSUNNY   73  37  27 SW9G18    29.75S
HOLYOKE        PTSUNNY   77  37  24 W7        29.75S
FORT MORGAN    SUNNY     71  33  23 SW10      29.78F
$$

COZ086-089-092>099-302300-
...SOUTHEAST COLORADO...

CITY           SKY/WX    TMP DP  RH WIND       PRES   REMARKS
PUEBLO         SUNNY     76  30  18 W18G25    29.77F
LA JUNTA       SUNNY     75  31  19 CALM      29.77F
LAMAR          SUNNY     76  37  24 CALM      29.75F
SPRINGFIELD      N/A     75  29  18 VRB6      29.79S
$$



USA.gov is the U.S. government's official web portal to all federal, state and local government web resources and services.